Wetbulb
61.99 62.09 61.62 61.01 60.77 60.79 60.66 59.52 59.64 59.63 59.60 59.68 59.00 56.85 56.47 55.03 54.53 54.44 54.15 58.67 63.51 65.52 65.28 65.54 68.11 68.09 67.50 66.32 65.24 63.99 62.87 61.55 60.92 60.53 59.88 59.42 59.59 60.26 60.61 60.66 60.75 60.61 60.71
61.94 61.81 61.03 60.58 59.94 60.16 60.86 60.21 60.23 60.24 59.86 58.53 59.13 58.71 58.24 57.89 57.47 56.68 57.17 57.26 61.05 64.22 65.82 65.34 66.30 67.69 68.33 67.93 67.53 66.10 64.68 63.97 62.94 61.93 61.16 60.32 59.58 59.43 59.59 59.57 60.01 60.22 60.13
60.50 60.47 58.92 57.91 59.91 59.56 60.11 59.94 57.78 58.12 58.44 59.95 59.86 60.42 60.52 60.29 60.31 59.95 59.02 58.52 58.34 61.35 63.91 65.33 66.17 66.49 66.82 67.32 67.54 67.04 66.36 65.70 64.81 63.92 62.82 62.03 61.05 59.80 59.57 59.51 60.01 60.09 60.20
60.95 60.85 60.74 58.94 57.90 57.36 57.12 57.10 57.23 57.90 58.82 59.11 59.31 60.30 60.70 60.89 61.18 61.80 62.20 61.55 60.71 59.95 60.92 63.51 65.80 67.43 67.68 66.91 66.84 66.88 66.74 66.18 65.53 65.46 64.58 63.27 62.54 61.45 60.50 59.95 60.15 60.34 60.20
62.95 62.47 61.72 61.25 60.35 59.26 58.25 57.88 58.51 59.42 59.18 59.81 61.01 61.30 62.31 62.44 62.94 62.96 62.43 62.02 62.11 61.61 60.40 60.85 62.54 63.85 65.56 65.72 65.52 65.85 65.64 65.70 65.17 65.10 65.24 64.91 63.70 62.97 62.07 61.02 60.23 60.26 60.32
63.67 62.72 62.14 61.66 61.33 61.10 60.83 60.47 60.30 61.26 61.68 62.34 62.29 62.48 62.25 61.16 60.71 60.64 60.89 61.18 60.61 61.18 61.03 60.62 59.49 60.00 62.32 63.76 64.22 64.65 65.13 65.00 64.80 64.08 64.27 64.57 64.75 64.35 63.43 62.77 61.60 60.84 60.56
64.05 62.77 62.41 62.30 62.08 61.61 61.81 62.23 62.84 62.28 62.23 62.64 61.59 60.44 58.65 59.30 59.66 60.04 59.57 59.47 59.60 60.22 59.55 58.82 57.93 58.54 58.53 62.41 62.69 62.88 63.50 63.88 62.70 62.34 62.24 62.81 63.67 64.30 64.62 64.24 63.45 62.27 61.36
64.62 63.59 62.65 62.39 62.63 62.40 63.01 63.05 62.91 62.34 62.36 62.30 59.87 56.37 53.97 55.39 56.44 56.15 55.74 56.70 56.56 55.96 56.85 56.85 56.59 56.85 56.23 56.49 57.06 59.38 60.10 60.34 60.90 61.24 61.30 61.50 61.80 62.35 63.28 64.53 64.42 63.86 62.75
64.69 64.50 64.11 63.19 62.97 64.06 63.41 63.67 63.50 62.65 61.05 59.79 61.13 59.02 54.83 50.93 53.38 56.21 55.37 55.57 54.40 53.82 53.24 53.27 53.56 54.08 53.70 52.74 53.30 55.12 58.32 59.35 60.21 60.86 60.83 60.68 60.95 61.49 61.95 62.59 63.02 63.46 64.22
64.25 64.86 64.30 64.36 64.64 64.30 63.51 62.94 62.50 62.02 59.80 57.38 56.30 57.63 56.64 57.44 55.18 51.61 53.67 54.00 53.89 52.45 51.71 51.73 51.43 52.41 51.13 51.14 54.21 55.96 57.45 58.63 59.24 59.73 59.74 59.37 60.04 61.20 61.44 61.57 61.51 61.53 61.93
60.96 60.98 60.98 60.65 60.31 59.94 59.63 59.69 59.19 58.29 56.90 56.00 54.63 53.64 52.41 51.67 53.17 53.49 50.30 50.72 52.33 53.00 52.15 50.80 50.03 48.60 49.90 51.00 51.57 54.00 56.34 57.08 57.98 58.26 58.52 58.19 58.20 58.42 59.39 59.96 60.26 60.17 60.25
58.77 59.11 58.38 57.53 57.21 56.71 56.68 56.70 55.75 53.92 52.92 52.62 52.90 52.19 51.86 50.20 48.59 48.33 48.44 48.43 48.85 49.96 50.07 48.98 47.52 47.15 49.23 50.65 52.13 53.56 54.29 54.91 55.68 56.21 56.89 56.61 56.75 56.88 56.91 57.57 57.79 58.10 58.59
55.96 56.71 56.61 55.95 54.55 54.07 54.14 53.73 52.57 51.40 51.47 51.36 51.44 51.81 51.90 51.53 51.28 50.03 48.86 47.96 48.11 48.97 46.72 46.20 46.42 46.14 47.72 49.05 49.60 50.35 51.54 52.39 53.03 53.91 54.84 54.68 54.29 54.90 56.18 54.75 55.88 57.02 57.57
55.33 55.30 54.11 52.60 52.01 51.99 51.76 50.95 50.54 49.79 49.26 49.25 49.07 49.76 50.71 51.30 51.39 51.82 52.33 49.73 49.23 49.59 48.88 44.42 44.45 45.55 47.22 47.52 48.39 48.08 48.46 50.40 50.56 51.29 51.49 51.45 52.60 53.58 55.99 53.64 55.29 55.88 56.04
54.10 53.02 51.70 50.86 49.99 49.44 48.71 48.43 48.12 47.79 47.99 48.59 49.57 49.52 50.17 49.84 50.29 50.63 51.48 52.22 51.29 47.37 48.66 45.68 43.31 44.85 45.49 45.75 46.19 46.00 46.18 48.24 48.74 49.40 49.42 50.33 50.79 51.50 53.02 54.65 55.55 56.06 56.58
51.96 50.75 49.34 48.71 48.11 47.68 46.71 46.35 46.12 47.06 47.91 47.78 48.45 47.51 46.61 46.70 46.83 48.90 49.27 51.20 51.78 51.24 47.82 46.33 44.14 44.15 44.66 44.79 45.45 44.30 44.02 45.19 46.55 47.32 47.89 48.08 48.62 50.17 50.87 51.43 51.97 52.73 53.27
47.46 47.78 47.49 46.83 45.94 45.30 44.36 43.69 44.00 44.63 45.64 45.40 45.18 45.02 45.47 46.18 45.80 46.40 47.35 48.28 48.13 47.24 48.20 42.30 43.13 43.10 42.08 42.35 42.44 42.89 42.85 42.64 42.56 44.97 45.79 46.43 46.30 46.92 48.54 49.23 49.94 49.99 50.38
46.13 46.00 45.64 44.42 43.67 43.25 42.66 42.18 42.34 43.65 44.41 44.07 44.63 44.61 44.82 45.87 44.18 43.83 45.40 45.05 44.10 43.29 45.17 41.91 41.24 40.50 39.59 39.61 39.72 40.43 41.51 40.99 39.43 41.67 43.78 43.96 44.41 45.90 46.95 46.62 46.45 47.20 47.76
44.17 43.04 42.91 42.47 42.09 41.73 41.34 40.78 40.93 41.43 40.90 40.66 40.93 42.62 42.23 42.76 42.61 42.40 42.94 42.74 42.20 41.79 41.21 41.17 37.91 39.16 37.94 38.18 38.28 38.30 38.59 35.36 36.21 38.41 40.34 41.04 42.31 42.53 43.75 43.63 43.14 43.54 43.66
41.67 41.14 41.03 40.75 40.30 39.56 39.16 38.75 38.98 38.30 37.64 37.84 38.01 38.12 40.54 41.30 41.46 41.02 41.26 41.09 41.07 40.33 40.50 39.75 38.28 37.17 37.00 36.97 37.08 34.04 35.18 32.00 31.01 32.22 34.10 36.06 37.81 39.88 40.98 40.84 39.72 39.20 39.42
40.71 40.23 39.18 38.71 38.60 38.69 39.14 37.92 38.27 37.90 38.52 39.74 39.61 39.54 39.74 40.73 42.05 41.59 40.42 39.68 39.84 38.71 37.42 36.93 36.22 36.39 36.00 34.99 33.03 31.37 31.16 28.88 28.67 27.62 27.43 26.92 27.20 27.20 31.13 34.44 34.87 36.99 37.50
38.48 38.19 37.76 37.98 37.50 39.55 42.20 43.52 42.11 40.53 40.82 39.97 38.56 38.24 38.98 40.34 40.88 41.32 40.40 39.94 39.21 37.60 36.34 36.03 35.29 35.10 33.52 31.72 29.48 28.71 27.61 24.87 25.24 27.16 25.21 24.79 25.63 25.21 26.29 26.85 35.31 36.48 37.27
36.30 36.22 36.15 36.71 36.60 36.98 42.09 43.12 43.14 40.56 39.19 37.88 36.58 35.25 35.26 36.10 33.90 32.08 36.82 36.96 37.92 38.80 37.70 35.43 34.02 30.30 28.98 29.38 27.81 26.22 26.31 25.82 24.55 26.22 25.38 22.59 25.02 25.15 26.58 28.91 35.17 35.97 36.49
35.15 34.69 34.79 35.38 35.51 37.08 41.83 43.18 42.60 36.08 34.59 34.03 34.19 33.40 33.06 31.06 29.10 29.81 28.80 28.97 28.50 29.23 29.73 30.50 29.19 28.03 28.61 28.47 28.66 28.53 27.67 25.98 26.26 25.92 24.73 20.41 23.96 24.89 26.11 26.86 34.59 35.64 35.73
33.66 33.70 34.41 34.32 34.03 34.36 40.88 42.19 37.94 33.76 33.67 33.44 32.57 31.94 30.90 27.79 31.76 34.83 29.19 28.86 28.38 29.94 34.52 35.21 35.02 35.61 35.17 34.57 31.82 28.09 25.29 23.57 23.27 23.55 25.04 23.86 24.00 24.78 25.69 26.62 27.24 35.78 35.57
34.23 33.09 33.99 33.34 36.32 35.20 40.68 41.17 38.26 33.93 32.83 32.38 31.54 31.06 34.80 30.25 34.63 35.68 28.29 27.39 26.56 27.15 28.03 27.37 26.78 28.00 27.05 29.37 33.47 26.55 25.85 19.25 21.59 20.71 24.92 23.00 24.32 23.91 20.99 25.38 26.60 26.12 26.35
MSLP
1018.79 1018.99 1019.21 1019.48 1019.59 1019.67 1019.83 1020.07 1020.19 1020.25 1020.25 1020.23 1020.20 1020.19 1020.04 1020.04 1020.03 1020.02 1019.94 1019.84 1019.73 1019.70 1019.70 1019.65 1019.67 1019.80 1019.86 1019.99 1020.02 1020.20 1020.40 1020.43 1020.43 1020.51 1020.58 1020.60 1020.57 1020.57 1020.56 1020.46 1020.40 1020.22 1020.19
1018.42 1018.71 1019.06 1019.23 1019.47 1019.44 1019.51 1019.72 1019.86 1020.00 1020.05 1020.10 1019.99 1019.96 1019.90 1019.81 1019.73 1019.71 1019.61 1019.50 1019.44 1019.46 1019.43 1019.40 1019.31 1019.31 1019.38 1019.57 1019.69 1019.80 1020.04 1020.16 1020.22 1020.30 1020.42 1020.38 1020.51 1020.57 1020.63 1020.52 1020.32 1020.24 1020.12
1018.07 1018.25 1018.69 1019.00 1019.03 1019.18 1019.25 1019.47 1019.65 1019.80 1019.88 1019.80 1020.00 1019.76 1019.73 1019.63 1019.50 1019.32 1019.20 1019.23 1019.28 1019.32 1019.29 1019.08 1019.23 1019.15 1019.07 1019.11 1019.16 1019.30 1019.59 1019.71 1019.83 1019.95 1020.06 1020.15 1020.34 1020.50 1020.64 1020.58 1020.51 1020.26 1020.17
1017.74 1018.02 1018.30 1018.46 1018.56 1018.90 1019.13 1019.26 1019.43 1019.60 1019.75 1019.75 1019.66 1019.48 1019.31 1019.25 1019.15 1018.98 1018.79 1018.68 1018.70 1018.75 1018.92 1019.00 1018.94 1018.83 1018.88 1018.98 1019.02 1019.01 1019.03 1019.15 1019.30 1019.52 1019.68 1019.80 1019.91 1020.10 1020.32 1020.48 1020.44 1020.52 1020.43
1017.41 1017.62 1017.79 1017.96 1018.25 1018.51 1018.85 1019.10 1019.26 1019.28 1019.39 1019.39 1019.27 1019.15 1019.05 1018.86 1018.52 1018.55 1018.62 1018.44 1018.40 1018.33 1018.45 1018.54 1018.60 1018.63 1018.79 1018.87 1018.90 1018.80 1018.95 1019.00 1018.96 1018.98 1019.25 1019.41 1019.58 1019.66 1019.69 1020.08 1020.22 1020.26 1020.40
1016.91 1017.19 1017.36 1017.56 1017.90 1018.32 1018.55 1018.79 1018.89 1018.94 1018.96 1018.97 1019.02 1018.91 1018.75 1018.70 1018.61 1018.56 1018.52 1018.40 1018.35 1018.27 1018.19 1018.19 1018.31 1018.33 1018.53 1018.63 1018.74 1018.75 1018.83 1018.90 1018.88 1018.77 1018.87 1018.91 1019.05 1019.15 1019.38 1019.48 1019.76 1019.95 1020.04
1016.28 1016.79 1017.05 1017.32 1017.62 1017.98 1018.07 1018.31 1018.55 1018.70 1018.79 1018.80 1019.02 1018.94 1018.77 1018.49 1018.50 1018.33 1018.23 1018.27 1018.19 1018.05 1017.98 1017.91 1018.16 1018.35 1018.56 1018.64 1018.79 1018.90 1018.91 1019.05 1019.06 1019.03 1018.85 1018.88 1018.70 1018.66 1018.80 1019.04 1019.23 1019.41 1019.69
1015.80 1016.10 1016.49 1017.10 1017.35 1017.70 1017.92 1018.08 1018.31 1018.53 1018.65 1018.67 1019.04 1019.36 1019.24 1018.78 1018.48 1018.37 1018.32 1018.18 1018.21 1018.07 1018.18 1018.12 1018.20 1018.35 1018.74 1018.91 1019.26 1019.24 1019.19 1019.29 1019.13 1019.03 1018.91 1018.93 1018.83 1018.55 1018.37 1018.55 1018.74 1018.79 1019.01
1015.24 1015.56 1015.90 1016.32 1016.89 1017.31 1017.67 1017.85 1018.06 1018.35 1018.67 1018.83 1018.91 1019.15 1019.41 1019.58 1019.28 1018.53 1018.51 1018.44 1018.30 1018.40 1018.49 1018.49 1018.56 1018.85 1019.00 1019.32 1019.50 1019.54 1019.44 1019.38 1019.31 1019.09 1018.93 1018.88 1018.88 1018.59 1018.26 1018.23 1018.34 1018.39 1018.34
1015.31 1015.26 1015.67 1016.07 1016.63 1017.18 1017.79 1017.93 1018.19 1018.34 1018.63 1018.97 1019.12 1019.10 1019.26 1019.59 1019.67 1019.18 1018.78 1018.72 1018.55 1018.59 1018.71 1018.80 1019.07 1019.23 1019.41 1019.54 1019.59 1019.59 1019.56 1019.49 1019.43 1019.27 1019.06 1018.98 1018.96 1018.75 1018.55 1018.52 1018.54 1018.53 1018.42
1016.02 1015.87 1016.11 1016.50 1017.07 1017.57 1017.90 1017.97 1018.19 1018.65 1018.84 1018.99 1019.01 1019.21 1019.51 1019.58 1019.65 1019.96 1019.35 1019.03 1018.95 1018.89 1019.01 1019.07 1019.26 1019.49 1019.63 1019.80 1019.79 1019.77 1019.72 1019.57 1019.54 1019.51 1019.37 1019.37 1019.33 1019.10 1018.83 1018.55 1018.48 1018.45 1018.57
1016.63 1016.73 1016.70 1016.44 1016.48 1017.22 1017.63 1017.93 1018.25 1018.62 1018.93 1019.07 1019.24 1019.36 1019.57 1019.72 1019.87 1019.93 1020.00 1019.71 1019.48 1019.46 1019.60 1019.60 1019.79 1019.78 1019.80 1019.94 1020.12 1020.16 1020.03 1019.87 1019.96 1019.95 1019.79 1019.77 1019.74 1019.39 1019.04 1018.83 1018.84 1018.75 1018.50
1015.88 1016.89 1016.98 1016.65 1016.39 1016.48 1017.04 1017.43 1017.93 1018.41 1018.81 1019.17 1019.05 1019.37 1019.34 1019.48 1019.59 1019.80 1019.89 1019.80 1019.73 1019.55 1019.87 1020.04 1020.15 1020.12 1019.99 1020.08 1020.39 1020.63 1020.48 1020.16 1020.18 1020.12 1020.24 1020.14 1019.91 1019.45 1018.90 1018.73 1018.77 1018.69 1018.39
1015.31 1016.28 1016.87 1017.11 1017.18 1017.54 1018.05 1018.12 1018.21 1018.39 1018.70 1018.94 1019.12 1019.28 1019.20 1019.23 1019.33 1019.52 1019.45 1019.61 1019.43 1019.44 1019.64 1020.06 1020.31 1020.09 1020.26 1020.16 1020.24 1020.63 1020.75 1020.59 1020.47 1020.27 1020.17 1020.59 1020.28 1019.75 1018.90 1018.51 1018.62 1018.56 1018.54
1015.28 1015.87 1016.15 1016.78 1017.15 1017.60 1018.16 1018.52 1018.38 1018.90 1018.92 1018.88 1018.97 1018.89 1019.18 1019.09 1019.08 1019.24 1019.23 1019.39 1019.20 1019.16 1019.42 1020.08 1020.38 1020.61 1020.55 1020.79 1020.70 1020.79 1020.80 1020.91 1020.86 1020.56 1020.62 1020.76 1020.54 1020.15 1019.65 1018.92 1018.88 1018.88 1018.76
1014.85 1015.29 1016.13 1016.46 1016.61 1017.47 1018.02 1018.41 1018.80 1018.95 1019.09 1018.87 1018.84 1018.85 1019.08 1019.09 1018.96 1018.92 1018.98 1019.00 1018.91 1018.97 1019.31 1019.68 1020.32 1020.54 1020.65 1020.82 1021.01 1020.88 1021.06 1021.17 1021.12 1020.82 1020.87 1020.79 1020.88 1020.49 1020.15 1019.70 1019.75 1019.55 1019.47
1015.65 1015.95 1016.48 1016.63 1016.85 1017.42 1017.95 1018.62 1018.99 1018.86 1018.94 1019.12 1018.98 1018.86 1018.85 1019.03 1018.93 1018.98 1018.97 1018.98 1018.90 1019.05 1019.01 1019.84 1020.21 1020.50 1020.99 1020.97 1021.23 1021.09 1021.23 1021.46 1021.26 1021.09 1021.15 1020.99 1021.02 1020.77 1020.55 1020.05 1020.34 1020.26 1020.01
1015.90 1016.15 1016.52 1016.84 1017.32 1017.86 1018.17 1018.53 1018.84 1019.09 1019.01 1018.96 1018.81 1018.91 1018.92 1018.85 1018.83 1018.98 1019.06 1019.10 1019.18 1019.39 1019.38 1019.73 1020.14 1020.80 1021.09 1021.32 1021.36 1021.47 1021.49 1021.48 1021.60 1021.60 1021.43 1021.34 1021.29 1021.13 1020.70 1020.73 1020.93 1020.81 1020.58
1015.97 1016.38 1016.76 1017.20 1017.70 1018.18 1018.53 1018.75 1018.89 1018.93 1019.00 1018.99 1018.87 1019.07 1018.87 1019.05 1019.11 1018.95 1019.14 1019.25 1019.41 1019.65 1019.62 1019.83 1020.35 1020.73 1021.11 1021.50 1021.63 1021.81 1021.65 1021.86 1021.80 1021.81 1021.63 1021.77 1021.68 1021.43 1021.07 1021.31 1021.50 1021.31 1021.18
1016.13 1016.65 1017.10 1017.54 1017.86 1018.37 1018.60 1018.94 1019.06 1019.11 1019.33 1019.25 1019.30 1019.12 1019.21 1019.12 1019.14 1019.11 1019.13 1019.36 1019.31 1019.70 1019.90 1020.07 1020.29 1020.68 1020.86 1021.22 1021.42 1021.90 1022.11 1022.16 1022.31 1022.19 1022.07 1022.10 1021.96 1021.88 1021.49 1021.63 1021.91 1021.86 1021.70
1016.60 1016.99 1017.39 1017.78 1018.15 1018.37 1018.57 1018.83 1019.03 1019.16 1019.22 1019.42 1019.23 1019.37 1019.17 1019.21 1019.28 1019.17 1019.28 1019.41 1019.44 1019.49 1019.95 1020.23 1020.34 1020.66 1020.88 1021.07 1021.37 1021.96 1022.21 1022.47 1022.68 1022.91 1022.63 1022.66 1022.57 1022.46 1022.22 1022.28 1022.34 1022.15 1022.04
1017.08 1017.40 1017.64 1017.87 1018.18 1018.34 1018.51 1018.66 1018.54 1018.77 1019.06 1019.16 1019.35 1019.40 1019.51 1019.42 1019.43 1019.26 1019.47 1019.65 1019.62 1019.49 1019.95 1020.38 1020.44 1020.56 1020.81 1021.22 1021.67 1021.98 1022.39 1022.97 1023.02 1022.93 1022.86 1022.87 1022.78 1022.81 1022.65 1022.67 1022.41 1022.30 1022.25
1016.93 1017.46 1017.83 1018.00 1018.21 1018.35 1018.40 1018.46 1018.52 1018.64 1018.78 1019.12 1019.37 1019.59 1019.60 1019.74 1019.67 1019.69 1019.82 1019.96 1019.82 1019.92 1019.83 1020.19 1020.54 1020.85 1020.88 1021.09 1021.56 1022.11 1022.40 1022.68 1022.95 1023.04 1022.94 1023.08 1023.09 1022.89 1022.81 1022.77 1022.56 1022.36 1022.33
1016.89 1017.29 1017.76 1018.02 1018.20 1018.21 1018.23 1018.27 1018.42 1018.69 1018.91 1019.13 1019.39 1019.57 1019.74 1019.90 1019.88 1020.07 1020.25 1020.43 1020.53 1020.56 1020.33 1020.42 1020.56 1020.94 1021.11 1021.23 1021.41 1021.75 1022.25 1022.65 1022.99 1023.00 1023.08 1023.28 1023.17 1022.99 1022.89 1022.87 1022.61 1022.34 1022.30
1016.89 1017.08 1017.40 1017.81 1018.01 1018.11 1018.13 1018.20 1018.47 1018.83 1019.08 1019.27 1019.49 1019.68 1019.87 1020.01 1020.03 1020.14 1020.35 1020.63 1020.89 1020.88 1020.69 1020.62 1020.64 1020.72 1021.10 1021.04 1021.47 1021.89 1022.57 1022.93 1023.08 1023.09 1023.19 1023.22 1023.31 1023.26 1023.11 1023.06 1022.86 1022.40 1022.35
1016.51 1016.86 1017.36 1017.62 1017.76 1017.91 1017.95 1018.07 1018.39 1018.77 1019.11 1019.33 1019.53 1019.69 1019.72 1019.99 1020.06 1020.00 1020.50 1020.78 1021.05 1021.03 1021.08 1021.27 1021.23 1021.35 1021.59 1021.31 1021.35 1021.93 1022.37 1023.09 1023.27 1023.33 1023.16 1023.42 1023.50 1023.64 1023.60 1023.27 1023.15 1023.06 1022.86
Wind_Speed
4 4 3 3 3 3 3 3 3 3 4 4 4 4 5 5 4 3 3 7 9 9 8 7 8 9 9 9 8 7 5 4 4 4 2 1 1 0 1 1 2 2 3
4 4 4 4 4 4 4 4 4 4 4 3 5 5 6 5 5 5 4 4 9 10 10 11 11 11 11 9 12 10 10 9 8 6 6 5 4 3 3 2 2 2 2
6 6 5 4 5 4 5 3 3 2 3 2 4 4 4 5 5 6 5 4 4 8 10 14 11 11 11 11 9 10 12 13 12 11 10 8 7 6 6 5 5 5 4
7 5 5 5 4 4 4 3 3 3 3 3 3 4 4 4 6 5 4 4 4 3 6 12 13 13 12 10 9 10 10 7 11 15 13 12 11 10 8 8 8 7 7
7 6 5 4 5 4 4 3 4 3 3 3 4 4 4 4 4 3 6 5 5 4 3 6 11 12 8 8 9 9 9 8 5 9 15 15 14 14 13 12 11 10 9
8 6 4 5 5 4 4 3 5 4 3 3 3 4 3 4 4 4 5 4 3 5 5 5 4 4 6 5 6 7 9 7 6 4 5 11 16 17 15 15 14 13 12
9 7 4 5 4 4 5 6 3 4 3 1 1 3 3 4 5 5 3 4 4 5 5 4 3 3 2 4 1 1 3 4 5 6 6 7 6 14 18 18 17 16 15
9 8 7 5 5 4 5 5 4 2 1 3 2 1 4 4 3 2 3 2 2 2 1 1 3 3 3 4 5 7 6 6 5 5 6 6 7 7 9 17 18 19 18
8 8 7 5 5 4 3 3 3 4 2 1 1 2 2 4 2 2 2 2 2 2 2 2 4 4 4 4 4 6 7 6 6 6 6 6 7 8 8 8 7 10 17
6 6 5 5 5 3 2 2 2 2 2 3 1 1 2 2 3 4 2 1 3 1 2 2 3 4 4 4 6 7 7 7 7 7 7 7 9 12 9 8 8 9 10
4 3 5 4 3 1 2 3 2 2 2 2 3 2 1 1 3 4 5 4 2 2 2 2 4 4 3 3 3 5 6 7 8 8 8 9 10 12 13 13 12 10 11
1 3 2 4 6 4 3 3 3 3 3 2 1 2 3 2 2 3 3 4 3 2 3 3 3 3 3 3 5 8 8 10 9 9 10 10 13 13 12 12 10 10 10
5 6 5 6 5 7 7 6 5 3 2 2 2 3 3 3 2 2 2 3 4 2 1 2 2 2 3 3 4 6 7 9 8 8 10 11 11 14 13 8 9 9 8
5 7 3 2 5 5 4 2 1 1 2 3 5 5 3 4 3 3 2 3 4 4 3 3 1 2 2 2 6 6 4 7 7 8 8 9 12 14 18 3 5 3 5
5 7 7 6 5 4 3 2 2 3 2 3 4 3 3 3 2 2 4 5 3 3 4 2 2 1 2 2 4 2 4 5 6 8 8 10 10 11 15 19 16 16 16
5 7 4 4 6 5 2 1 2 3 4 3 2 3 2 2 2 2 3 3 3 4 5 2 1 2 3 4 3 3 4 3 5 7 6 7 10 12 11 13 14 16 14
5 6 4 5 5 5 3 1 3 4 4 5 3 3 4 3 2 2 2 1 1 1 3 2 2 2 2 3 2 2 3 0 3 5 5 5 5 7 10 14 12 12 13
5 6 5 5 4 3 3 2 3 4 5 5 5 4 5 3 2 0 1 1 1 0 0 2 2 1 2 1 1 2 1 3 3 6 3 5 5 6 8 11 10 11 13
5 5 5 5 4 3 2 0 2 3 3 3 2 3 1 2 2 1 1 1 1 0 1 2 2 2 2 1 1 1 2 3 2 6 6 6 5 5 6 8 8 10 10
6 5 4 4 4 3 3 1 2 2 1 1 1 2 1 0 1 2 1 2 2 2 1 1 2 2 2 2 2 1 1 3 2 3 4 6 6 7 6 6 7 8 9
4 5 5 4 4 4 3 4 2 2 3 3 2 2 1 2 3 2 1 2 2 2 1 2 2 2 2 2 3 2 1 1 1 2 2 3 3 3 4 5 5 6 6
4 4 4 4 4 2 6 8 5 4 4 4 3 2 2 3 3 4 2 1 1 3 2 1 1 2 3 2 2 3 2 1 2 1 2 1 2 1 2 2 4 4 3
5 4 3 3 4 4 6 7 7 3 4 4 4 4 2 2 3 4 6 6 6 5 4 1 2 2 3 5 5 3 2 2 2 1 1 1 2 1 1 3 5 1 2
6 5 4 4 3 4 7 7 4 2 2 2 3 3 2 3 2 4 3 3 3 3 4 3 3 3 2 5 3 3 4 3 1 1 1 1 1 1 2 2 6 2 1
4 4 3 5 5 4 7 6 6 3 3 4 3 3 3 3 5 6 3 3 2 2 4 7 7 7 7 8 6 4 1 2 1 1 0 1 0 2 1 2 3 4 4
4 4 3 3 6 5 7 7 6 3 3 2 2 3 7 5 6 5 3 3 4 3 3 2 3 5 5 2 5 2 3 2 2 1 1 2 1 2 2 1 2 2 3
Wind_Direction
191 173 192 200 205 190 194 211 232 253 267 277 277 263 272 268 266 256 258 264 247 242 247 244 225 227 229 230 226 230 232 223 222 219 216 217 234 351 5 34 33 60 54
183 182 192 206 215 202 199 203 214 240 260 263 263 258 257 259 258 255 245 252 244 237 238 242 241 242 249 236 240 224 224 228 227 227 225 219 218 225 235 239 225 208 180
190 181 191 205 213 208 210 212 231 226 245 253 262 268 264 263 258 256 247 245 254 249 245 245 251 249 252 263 261 253 243 235 231 225 221 217 219 227 235 230 226 212 208
192 187 189 201 201 193 196 194 194 214 223 218 244 255 246 252 263 262 258 234 224 222 236 246 244 245 251 266 284 292 291 276 241 232 228 223 214 214 224 228 226 228 224
201 187 186 201 186 184 193 199 203 192 207 242 238 259 262 247 258 285 277 263 248 235 220 234 244 239 243 263 283 290 299 308 318 248 240 228 224 219 212 222 226 225 225
198 190 190 197 182 179 200 209 215 211 209 232 260 267 269 271 279 266 265 274 269 257 245 240 248 209 202 232 267 288 299 310 344 357 290 260 237 225 223 219 221 223 222
190 187 192 191 184 189 204 205 200 222 241 238 288 281 299 274 279 272 312 286 272 269 250 223 177 155 103 112 120 355 11 37 27 26 12 345 338 256 230 226 222 221 220
195 186 183 196 191 196 219 205 189 185 230 176 230 61 313 322 313 327 325 325 324 14 318 129 144 139 128 102 82 66 54 26 13 22 20 358 347 330 337 247 238 229 219
191 187 188 184 188 200 217 196 182 189 237 99 172 201 289 261 313 301 294 1 55 66 59 66 83 84 102 88 76 55 59 55 37 28 16 354 342 335 326 334 325 285 251
213 176 184 174 173 166 204 168 132 157 151 233 345 217 217 204 280 313 320 276 25 82 114 73 89 85 79 88 78 72 65 59 47 30 16 353 344 344 343 345 330 335 333
10 89 118 116 94 328 276 233 162 163 189 195 185 170 230 252 247 240 277 306 344 17 16 143 131 114 95 82 84 69 66 72 57 33 13 355 342 328 319 317 318 314 303
346 318 291 174 147 163 188 201 185 192 214 243 255 212 191 192 222 215 248 273 240 344 18 62 97 114 112 94 80 75 78 71 56 33 13 0 350 341 323 305 296 298 300
144 222 224 205 180 171 178 169 168 177 194 220 216 239 218 224 186 219 223 253 248 228 165 50 99 106 97 97 79 67 63 69 65 47 19 0 353 355 334 298 293 295 300
135 153 197 82 39 42 23 43 109 147 210 242 256 242 243 237 206 204 220 231 262 231 186 168 25 101 101 119 112 91 63 61 57 58 44 2 8 8 9 325 298 316 359
156 161 154 133 120 86 49 349 27 290 258 241 251 255 240 247 220 223 257 261 267 268 237 182 150 146 108 84 99 98 69 55 46 53 48 24 19 19 22 38 46 46 40
153 137 93 114 114 106 110 45 299 272 271 277 264 241 249 259 253 245 240 238 239 250 257 116 137 136 138 117 108 85 82 54 43 46 40 32 22 25 33 41 40 42 36
115 118 131 131 122 129 102 15 287 289 271 270 265 248 259 251 254 248 255 270 295 321 262 113 97 102 98 123 116 95 94 90 37 27 22 26 20 18 32 45 41 42 42
147 138 133 118 114 131 134 193 271 284 261 267 270 257 258 242 220 343 278 215 189 75 288 141 123 115 90 86 116 124 113 56 36 360 5 24 17 16 51 50 41 43 44
126 121 125 136 145 145 145 100 292 293 289 300 325 275 230 208 206 170 206 187 146 184 92 131 137 137 108 179 130 36 91 62 53 30 45 24 39 41 45 48 42 47 45
136 136 136 141 139 143 128 117 344 322 290 12 40 53 16 62 202 185 170 182 157 184 121 142 147 132 143 165 139 153 142 53 8 9 22 31 38 29 36 69 48 36 33
149 150 143 147 153 157 174 181 195 253 242 224 185 182 145 166 158 156 184 225 204 146 155 171 153 151 168 155 164 148 132 90 33 2 348 10 358 7 22 31 14 17 15
141 144 154 159 178 218 233 236 198 199 229 215 197 153 106 83 98 105 111 149 191 168 188 204 189 183 139 116 120 140 124 129 229 1 22 327 21 360 353 323 302 9 35
142 157 175 184 214 230 245 246 255 216 194 209 189 179 152 74 81 60 71 52 53 78 95 165 183 200 164 169 136 123 154 149 180 251 73 284 4 327 327 323 320 41 64
169 165 195 208 211 233 243 244 241 120 129 133 163 169 159 178 158 135 113 83 47 26 35 76 110 145 116 133 123 152 162 128 100 82 77 223 360 273 341 310 306 173 91
167 174 176 202 208 234 247 213 138 141 163 170 170 187 190 195 222 185 155 150 101 39 70 86 99 113 125 130 132 106 105 102 211 216 314 163 327 317 346 314 328 28 26
170 155 181 210 226 221 227 221 174 161 192 191 199 209 206 199 227 189 175 182 203 196 142 84 54 65 51 56 141 124 147 137 133 7 205 130 138 27 341 308 320 359 359